User: anonymous   Login
Location: Braunsdorf
(50.7357°N, 11.9136°E)
Time: 07:38:24
(UTC+00:00)
Language:

ADEOS - Orbit

View from above orbital plane
View from above orbital plane
View from above satellite
View from above satellite

Ground track
Ground track

The orbit data is extracted from the following two-line orbital elements,

1 24277U 96046A   20156.86382026 -.00000033  00000-0  50333-5 0  9992
2 24277  98.8722 132.0174 0002152  65.6530 294.4875 14.29450636241032
Epoch (UTC): 04 June 2020 20:43:54
Eccentricity: 0.0002152
inclination: 98.8722°
perigee height: 792 km
apogee height: 795 km
right ascension of ascending node: 132.0174°
argument of perigee: 65.6530°
revolutions per day: 14.29450636
mean anomaly at epoch: 294.4875°
orbit number at epoch: 24103

The dashed part of the orbit path shows where the satellite is in the earth's shadow,  

DLR